Regional Weather Roundup
Issued by NWS

Home | Current Version | Previous Version | Text Only | Print | Product List | Glossary On
Versions: 1 2 3 4 5 6 7 8 9 10 11 12 13 14 15 16 17 18 19 20 21 22 23 24 25 26 27 28 29 30 31 32 33 34 35 36 37 38 39 40 41 42 43 44 45 46 47 48 49 50
000
ASUS45 KREV 180810
RWRNV
NEVADA REGIONAL WEATHER ROUNDUP
NATIONAL WEATHER SERVICE RENO NV
1200 AM PST THU DEC 18 2014

NOTE: "FAIR" INDICATES FEW OR NO CLOUDS BELOW 12,000 FEET WITH NO
SIGNIFICANT WEATHER AND/OR OBSTRUCTIONS TO VISIBILITY.

NVZ001-003-004-180900-
WESTERN NEVADA

CITY           SKY/WX    TMP DP  RH WIND       PRES   REMARKS
RENO           PTCLDY    36  28  73 CALM      30.05R
CARSON CITY    CLOUDY    34  23  64 CALM      30.05S
MINDEN         FAIR      32  23  69 E12       30.06R
SLIDE MTN        N/A     19  18  93 S9          N/A
PYRAMID LAKE     N/A     41 N/A N/A SW7         N/A
FALLON         MOCLDY    34  27  75 E3        30.03F
LOVELOCK       CLOUDY    32  27  81 CALM      30.04S
HAWTHORNE      CLEAR     34  27  75 CALM      30.04S
$$

NVZ002-CAZ072-073-180900-
NORTHERN AND CENTRAL SIERRA

CITY           SKY/WX    TMP DP  RH WIND       PRES   REMARKS
S. LAKE TAHOE  MOCLDY    32  23  69 S6        30.03F
TRUCKEE        CLOUDY    32  27  80 CALM      30.05S
SQUAW VLY 8000   N/A     23  25 100 VRB16       N/A
BLUE CANYON    CLOUDY    33  30  88 SE8       30.08R FOG
MAMMOTH LAKES    N/A     18  16  93 NW5         N/A
BRIDGEPORT     CLOUDY    25  18  74 CALM      30.01S
$$

NVZ030-031-036-180900-
NORTHERN NEVADA

CITY           SKY/WX    TMP DP  RH WIND       PRES   REMARKS
ELKO           CLOUDY    27  26  96 CALM      30.06S FOG
WINNEMUCCA     CLOUDY    31  27  85 E5        30.04S
WENDOVER       CLEAR     25  21  86 CALM      30.07S
$$

NVZ035-037-180900-
CENTRAL NEVADA

CITY           SKY/WX    TMP DP  RH WIND       PRES   REMARKS
ELY            CLOUDY    26  21  81 SE8       30.06S
EUREKA           N/A     29  26  89 S5        30.05S
$$

NVZ013-014-180900-
SOUTH CENTRAL NEVADA

CITY           SKY/WX    TMP DP  RH WIND       PRES   REMARKS
TONOPAH        CLOUDY    33  31  92 CALM      30.07F
$$

NVZ017-020-022-180900-
SOUTHERN NEVADA

CITY           SKY/WX    TMP DP  RH WIND       PRES   REMARKS
LAS VEGAS      CLOUDY    49  43  80 CALM      30.05S
N. LAS VEGAS   CLOUDY    48  43  82 E5        30.08F
NELLIS AFB     CLOUDY    49  44  83 NE10      30.09S
HENDERSON      CLOUDY    47  41  80 SW8       30.10S
MERCURY        MOCLDY    41  40  96 NE3       30.07F
$$



USA.gov is the U.S. government's official web portal to all federal, state and local government web resources and services.